Location: Rometta
(44.2000°N, 10.0500°E)
Time: 11:25:04
(UTC+00:00)

Cosmos 1818 - Pass Details

Date: 18 May 2021
Orbit: 771 x 802 km, 65.0° (Epoch: 15 June)

Event Time Altitude Azimuth Distance (km) Brightness Sun altitude
Rises 22:09:48 0° 310° (NW) 3,318 7.7 -24.3°
Reaches altitude 10° 22:13:04 10° 291° (WNW) 2,380 6.5 -24.4°
Maximum altitude 22:16:25 17° 253° (WSW) 1,945 5.5 -24.6°
Enters shadow 22:17:15 16° 242° (WSW) 1,972 5.5 -24.6°
